Pine Bluffs Muni, Pine Bluffs, WY

1:54 PM MDT on July 21, 2017 (GMT -0600)
Pine Bluffs Muni, Pine Bluffs

Weather History for K82V - March, 2014

Change the Weather History Date:

Tuesday, March 11, 2014

  Actual Average (KCYS) Record (KCYS)
Temperature  
Mean Temperature 36 °F -  
Max Temperature 46 °F 46 °F 72 °F (1989)
Min Temperature 26 °F 23 °F -19 °F (1948)
Degree Days  
Heating Degree Days 29    
Moisture  
Dew Point 27 °F    
Average Humidity 78    
Maximum Humidity 100    
Minimum Humidity 43    
Precipitation  
Precipitation 0.00 in - - ()
Sea Level Pressure  
Sea Level Pressure 29.99 in    
Wind  
Wind Speed 20 mph (NNW)    
Max Wind Speed 33 mph    
Max Gust Speed 41 mph    
Visibility 8 miles    
Events Fog , Rain , Snow    
Averages and records for this station are not official NWS values.
T = Trace of Precipitation, MM = Missing Value Source: NWS Daily Summary

Daily Weather History Graph

Daily Weather History Graph

Search for Another Location

Airport or City:

Trip Planner

Search our weather history database for the weather conditions in past years. The results will help you decide how hot, cold, wet, or windy it might be!

Date:

Astronomy

Mar. 11, 2014 Rise Set
Actual Time 7:14 AM MDT 6:58 PM MDT
Civil Twilight 6:47 AM MDT 7:26 PM MDT
Nautical Twilight 6:15 AM MDT 7:58 PM MDT
Astronomical Twilight 5:43 AM MDT 8:30 PM MDT
Moon 2:35 PM MDT (3/11) 4:11 AM MDT (3/11)
Length of Visible Light 12h 39m
Length of Day
11h 44m
Waxing Gibbous, 78% of the Moon is Illuminated
Mar 11
Waxing Gibbous
Mar 16
Full
Mar 23
Last Quarter
Mar 30
New
Apr 7
First Quarter

Hourly Weather History & Observations

Time (MDT) Temp. Windchill Dew Point Humidity Pressure Visibility Wind Dir Wind Speed Gust Speed Precip Events Conditions
12:15 AM 46.4 °F 41.1 °F 24.8 °F 43% 29.67 in 10.0 mi WNW 11.5 mph 17.3 mph N/A   Clear
12:35 AM 44.6 °F 37.8 °F 28.4 °F 53% 29.67 in 10.0 mi WNW 15.0 mph - N/A   Clear
12:55 AM 44.6 °F 36.6 °F 28.4 °F 53% 29.67 in 10.0 mi WNW 19.6 mph 25.3 mph N/A   Clear
1:15 AM 44.6 °F 36.1 °F 28.4 °F 53% 29.66 in 10.0 mi NW 21.9 mph - N/A   Clear
1:35 AM 44.6 °F 37.2 °F 28.4 °F 53% 29.67 in 10.0 mi NW 17.3 mph - N/A   Clear
1:55 AM 42.8 °F 33.5 °F 28.4 °F 57% 29.67 in 10.0 mi NW 23.0 mph - N/A   Clear
2:15 AM 42.8 °F 33.5 °F 26.6 °F 53% 29.67 in 10.0 mi NW 23.0 mph 29.9 mph N/A   Clear
2:35 AM 42.8 °F 34.8 °F 26.6 °F 53% 29.67 in 10.0 mi WNW 17.3 mph 31.1 mph N/A   Clear
2:55 AM 42.8 °F 33.5 °F 28.4 °F 57% 29.66 in 10.0 mi WNW 23.0 mph 28.8 mph N/A   Clear
3:15 AM 41.0 °F 29.5 °F 30.2 °F 65% 29.64 in 10.0 mi NW 32.2 mph 38.0 mph N/A   Clear
3:35 AM 41.0 °F 29.3 °F 30.2 °F 65% 29.64 in 10.0 mi WNW 33.4 mph 41.4 mph N/A   Clear
3:55 AM 41.0 °F 30.5 °F 30.2 °F 65% 29.65 in 10.0 mi WNW 26.5 mph 35.7 mph N/A   Clear
4:15 AM 39.2 °F 28.7 °F 30.2 °F 70% 29.65 in 10.0 mi WNW 23.0 mph 28.8 mph N/A   Clear
4:35 AM 39.2 °F 29.0 °F 28.4 °F 65% 29.66 in 10.0 mi WNW 21.9 mph 26.5 mph N/A   Clear
4:55 AM 39.2 °F 28.7 °F 28.4 °F 65% 29.66 in 10.0 mi WNW 23.0 mph 29.9 mph N/A   Clear
5:15 AM 39.2 °F 29.3 °F 28.4 °F 65% 29.67 in 10.0 mi WNW 20.7 mph 27.6 mph N/A   Clear
5:35 AM 37.4 °F 26.9 °F 28.4 °F 70% 29.67 in 10.0 mi NW 20.7 mph - N/A   Clear
5:55 AM 35.6 °F 27.1 °F 28.4 °F 75% 29.70 in 10.0 mi North 12.7 mph - N/A   Clear
6:15 AM 35.6 °F 25.9 °F 28.4 °F 75% 29.71 in 10.0 mi NW 16.1 mph 19.6 mph N/A   Clear
6:35 AM 35.6 °F 24.5 °F 30.2 °F 81% 29.72 in 10.0 mi NW 20.7 mph 25.3 mph N/A   Clear
6:55 AM 37.4 °F 25.2 °F 30.2 °F 75% 29.74 in 10.0 mi NNW 28.8 mph 36.8 mph N/A   Clear
7:15 AM 32.0 °F 19.5 °F 32.0 °F 100% 29.78 in 0.5 mi North 21.9 mph 32.2 mph N/A Fog Fog
7:35 AM 32.0 °F 19.5 °F 32.0 °F 100% 29.81 in 0.5 mi North 21.9 mph 28.8 mph N/A Fog Light Freezing Fog
7:55 AM 32.0 °F 20.5 °F 30.2 °F 93% 29.82 in 0.2 mi North 18.4 mph 25.3 mph N/A Fog Light Freezing Fog
8:15 AM 32.0 °F 20.5 °F 32.0 °F 100% 29.83 in 0.2 mi North 18.4 mph 24.2 mph N/A Fog Light Freezing Fog
8:35 AM 32.0 °F 20.1 °F 32.0 °F 100% 29.85 in 1.0 mi North 19.6 mph 24.2 mph N/A Rain Light Rain
8:55 AM 32.0 °F 21.2 °F 30.2 °F 93% 29.87 in 2.0 mi North 16.1 mph 25.3 mph N/A Snow Light Snow
9:15 AM 32.0 °F 20.5 °F 32.0 °F 100% 29.87 in 4.0 mi North 18.4 mph 24.2 mph N/A Snow Light Snow
9:35 AM 32.0 °F 20.5 °F 32.0 °F 100% 29.88 in 10.0 mi North 18.4 mph 25.3 mph N/A   Overcast
9:55 AM 32.0 °F 18.9 °F 30.2 °F 93% 29.90 in 10.0 mi North 24.2 mph 31.1 mph N/A   Overcast
10:15 AM 32.0 °F 18.9 °F 28.4 °F 87% 29.93 in 10.0 mi North 24.2 mph 29.9 mph N/A   Overcast
10:35 AM 32.0 °F 19.5 °F 28.4 °F 87% 29.96 in 10.0 mi North 21.9 mph 29.9 mph N/A   Overcast
10:55 AM 32.0 °F 19.5 °F 28.4 °F 87% 29.98 in 4.0 mi North 21.9 mph 33.4 mph N/A Snow Light Snow
11:15 AM 32.0 °F 19.2 °F 28.4 °F 87% 30.00 in 3.0 mi North 23.0 mph 33.4 mph N/A Snow Light Snow
11:35 AM 32.0 °F 18.6 °F 28.4 °F 87% 30.02 in 2.0 mi North 25.3 mph 32.2 mph N/A Snow Light Snow
11:55 AM 32.0 °F 17.6 °F 28.4 °F 87% 30.03 in 1.8 mi North 29.9 mph 34.5 mph N/A Snow Light Snow
12:15 PM 32.0 °F 17.4 °F 28.4 °F 87% 30.03 in 4.0 mi North 31.1 mph 39.1 mph N/A Snow Light Snow
12:35 PM 32.0 °F 17.2 °F 28.4 °F 87% 30.05 in 3.0 mi North 32.2 mph 40.3 mph N/A Snow Light Snow
12:55 PM 32.0 °F 18.1 °F 28.4 °F 87% 30.07 in 4.0 mi North 27.6 mph 38.0 mph N/A Snow Light Snow
1:15 PM 32.0 °F 17.9 °F 28.4 °F 87% 30.08 in 4.0 mi North 28.8 mph 36.8 mph N/A Snow Light Snow
1:35 PM 32.0 °F 18.4 °F 28.4 °F 87% 30.10 in 2.0 mi North 26.5 mph 34.5 mph N/A Snow Light Snow
1:55 PM 32.0 °F 18.4 °F 28.4 °F 87% 30.11 in 1.2 mi North 26.5 mph 31.1 mph N/A Snow Light Snow
2:15 PM 30.2 °F 17.1 °F 28.4 °F 93% 30.13 in 0.8 mi NNE 21.9 mph 28.8 mph N/A Snow Light Snow
2:35 PM 32.0 °F 20.1 °F 30.2 °F 93% 30.14 in 0.8 mi North 19.6 mph 26.5 mph N/A Snow Light Snow
2:55 PM 30.2 °F 16.8 °F 28.4 °F 93% 30.15 in 0.5 mi North 23.0 mph 32.2 mph N/A Snow Snow
3:15 PM 32.0 °F 20.1 °F 28.4 °F 87% 30.15 in 5.0 mi North 19.6 mph 38.0 mph N/A   Overcast
3:35 PM 32.0 °F 18.6 °F 28.4 °F 87% 30.16 in 7.0 mi NNW 25.3 mph 32.2 mph N/A Snow Light Snow
3:55 PM 32.0 °F 18.6 °F 28.4 °F 87% 30.18 in 1.8 mi North 25.3 mph 36.8 mph N/A Snow Light Snow
4:15 PM 30.2 °F 15.7 °F 28.4 °F 93% 30.18 in 10.0 mi NNW 27.6 mph 36.8 mph N/A   Overcast
4:35 PM 32.0 °F 18.9 °F 26.6 °F 80% 30.18 in 10.0 mi NNW 24.2 mph 34.5 mph N/A   Mostly Cloudy
4:55 PM 32.0 °F 18.1 °F 28.4 °F 87% 30.19 in 7.0 mi NNW 27.6 mph 35.7 mph N/A   Mostly Cloudy
5:15 PM 32.0 °F 19.2 °F 26.6 °F 80% 30.20 in 10.0 mi NNW 23.0 mph 33.4 mph N/A   Mostly Cloudy
5:35 PM 32.0 °F 18.4 °F 26.6 °F 80% 30.21 in 10.0 mi NNW 26.5 mph 34.5 mph N/A   Scattered Clouds
5:55 PM 32.0 °F 18.1 °F 26.6 °F 80% 30.22 in 10.0 mi NNW 27.6 mph 33.4 mph N/A   Mostly Cloudy
6:15 PM 30.2 °F 16.8 °F 23.0 °F 75% 30.23 in 10.0 mi NNW 23.0 mph 32.2 mph N/A   Scattered Clouds
6:35 PM 30.2 °F 17.8 °F 23.0 °F 75% 30.24 in 10.0 mi NW 19.6 mph 27.6 mph N/A   Clear
6:55 PM 30.2 °F 16.8 °F 23.0 °F 75% 30.24 in 10.0 mi NNW 23.0 mph 27.6 mph N/A   Clear
7:15 PM 28.4 °F 14.7 °F 21.2 °F 74% 30.25 in 10.0 mi NNW 21.9 mph 28.8 mph N/A   Clear
7:35 PM 28.4 °F 15.8 °F 21.2 °F 74% 30.26 in 10.0 mi NNW 18.4 mph 28.8 mph N/A   Clear
7:55 PM 28.4 °F 16.6 °F 21.2 °F 74% 30.27 in 10.0 mi NNW 16.1 mph 21.9 mph N/A   Clear
8:15 PM 26.6 °F 13.4 °F 21.2 °F 80% 30.27 in 10.0 mi NNW 18.4 mph 21.9 mph N/A   Clear
8:35 PM 26.6 °F 13.4 °F 21.2 °F 80% 30.27 in 10.0 mi NNW 18.4 mph - N/A   Clear
8:55 PM 26.6 °F 13.4 °F 21.2 °F 80% 30.29 in 10.0 mi NW 18.4 mph - N/A   Clear
9:15 PM 26.6 °F 13.4 °F 19.4 °F 74% 30.29 in 10.0 mi NW 18.4 mph - N/A   Clear
9:35 PM 26.6 °F 14.7 °F 19.4 °F 74% 30.30 in 10.0 mi NNW 15.0 mph - N/A   Clear
9:55 PM 26.6 °F 14.3 °F 19.4 °F 74% 30.30 in 10.0 mi NW 16.1 mph 20.7 mph N/A   Clear
10:15 PM 26.6 °F 15.2 °F 19.4 °F 74% 30.30 in 10.0 mi NW 13.8 mph - N/A   Clear
10:35 PM 26.6 °F 15.7 °F 19.4 °F 74% 30.30 in 10.0 mi NW 12.7 mph - N/A   Clear
10:55 PM 26.6 °F 15.7 °F 19.4 °F 74% 30.30 in 10.0 mi NW 12.7 mph - N/A   Clear
11:15 PM 26.6 °F 15.7 °F 19.4 °F 74% 30.30 in 10.0 mi NW 12.7 mph - N/A   Clear
11:35 PM 26.6 °F 15.7 °F 19.4 °F 74% 30.30 in 10.0 mi NW 12.7 mph - N/A   Clear
11:55 PM 26.6 °F 15.7 °F 19.4 °F 74% 30.30 in 10.0 mi NW 12.7 mph - N/A   Clear